Location: Unspecified
(0.0000°N, 0.0000°E)
Time: 01:39:36
(UTC+00:00)

AO-7 - Pass Details

Date: 12 December 2017
Orbit: 1440 x 1458 km, 101.7° (Epoch: 22 January)

Event Time Altitude Azimuth Distance (km) Brightness Sun altitude
Exits shadow 03:25:24 69° 359° (N) 1,541 ? -33.7°
Maximum altitude 03:26:36 84° 287° (WNW) 1,468 ? -33.4°
Drops below altitude 10° 03:34:59 10° 198° (SSW) 3,578 ? -31.6°
Sets 03:37:46 0° 197° (SSW) 4,556 ? -30.9°
